[Date Prev][Date Next][Thread Prev][Thread Next] - [Date Index][Thread Index][Author Index]
2 Line ISS Keps 7-13
- Subject: [sarex] 2 Line ISS Keps 7-13
- From: "Dave Larsen PhD" <doc@xxxxxxxxxxx>
- Date: Sat, 13 Jul 2002 02:42:37 -0700
ISS
1 25544U 98067A 02194.11012672 .00007051 00000-0 95401-4 0 6573
2 25544 51.6377 282.8394 0008428 352.1514 76.6203 15.58929094208073
----
Via the sarex mailing list at AMSAT.ORG courtesy of AMSAT-NA.
To unsubscribe, send "unsubscribe sarex" to Majordomo@amsat.org
AMSAT Home